Wind_Speed
37 36 35 34 33 32 31 29 27 25 24 25 24 24 24 23 23 24 25 25 27 28 29 30 32 35 36 37 37 37 37 37 37 36 36 35 35 35
40 39 37 36 35 34 33 31 30 27 25 26 26 26 25 24 24 24 25 26 27 28 29 30 30 32 35 37 37 37 37 37 37 37 36 35 35 34
43 41 39 38 37 36 35 33 32 30 27 26 27 27 27 26 25 25 26 26 26 28 28 30 30 30 32 35 35 36 35 36 36 37 37 36 36 35
46 44 42 40 39 37 36 35 34 32 30 28 28 27 27 27 26 26 26 26 27 28 29 30 30 29 31 34 35 34 34 34 35 36 36 36 36 36
49 47 45 43 41 40 38 36 35 33 32 30 28 27 27 27 26 26 26 26 26 27 28 29 30 30 31 31 32 32 32 33 34 35 36 36 36 36
52 50 47 45 43 42 40 38 36 34 33 31 30 28 27 27 27 26 26 26 26 27 27 28 28 28 30 30 31 31 32 32 31 32 33 34 35 35
55 52 50 47 45 43 41 40 38 35 33 32 30 29 28 28 27 27 26 26 25 26 26 26 27 28 29 30 31 31 32 32 31 31 31 31 32 32
56 55 52 49 46 44 42 40 38 36 34 33 31 29 28 28 27 26 26 25 25 25 26 26 26 27 28 29 29 30 30 30 30 31 31 31 31 31
55 55 53 51 49 46 43 41 39 36 35 33 31 29 28 27 26 25 25 25 25 25 26 27 27 27 27 28 28 28 28 28 28 29 29 30 30 31
53 52 53 52 50 47 45 42 40 37 35 33 31 29 28 27 25 24 24 23 24 25 25 26 27 27 28 28 27 27 28 28 27 28 28 28 29 30
49 50 50 50 49 47 45 43 40 37 35 32 31 29 27 26 24 24 24 23 23 24 25 26 26 27 27 28 28 28 28 27 27 27 27 27 27 27
43 45 47 49 48 47 45 43 40 38 35 32 30 28 27 25 24 24 23 23 23 23 23 23 24 25 25 25 25 26 26 26 26 26 26 25 24 24
38 40 42 45 46 45 44 42 40 37 35 32 30 28 27 25 23 23 23 22 22 22 22 22 22 23 22 22 23 24 24 24 24 24 23 23 23 23
36 38 39 40 43 44 42 40 38 36 34 32 30 28 26 24 23 23 22 22 22 21 21 20 20 20 20 21 21 22 22 21 21 22 22 22 22 22
31 34 36 37 38 40 40 38 36 34 33 32 29 27 26 24 23 23 22 22 22 22 21 20 20 20 20 21 21 21 21 20 20 21 21 21 21 21
27 31 34 35 35 37 39 36 34 32 31 30 28 26 24 23 24 24 23 22 22 21 21 21 21 21 21 21 21 21 19 19 19 19 19 19 19 19
26 29 33 33 33 34 35 35 33 31 30 28 27 25 24 23 23 23 22 21 21 22 21 21 21 20 20 20 20 19 19 18 18 18 18 18 19 20
24 26 29 31 32 32 32 32 32 31 29 28 26 25 23 23 22 22 21 21 21 21 21 21 21 20 19 19 18 18 18 17 17 18 19 20 21 21
24 25 27 29 30 31 31 31 30 30 29 28 27 25 23 22 22 21 21 21 21 21 21 21 20 19 18 18 17 17 17 18 19 20 21 21 22 23
24 26 27 29 30 31 31 31 30 29 28 27 26 26 24 23 22 22 21 21 20 20 19 19 18 18 18 18 17 18 18 19 20 21 22 22 23 25
25 26 28 30 30 30 31 30 29 28 27 26 26 25 24 23 23 22 21 21 20 20 19 18 18 18 17 17 17 18 18 19 20 21 22 24 25 27
25 26 26 27 29 30 30 29 28 27 27 26 25 24 24 23 22 21 20 19 19 18 17 17 16 16 16 17 17 18 19 20 21 23 24 26 27 28
24 25 25 26 28 28 28 28 27 27 27 26 24 23 23 22 21 20 19 18 17 17 16 16 16 17 17 18 19 20 21 22 23 25 26 28 29 31
Wind_Direction
263 264 264 263 264 264 264 263 263 264 268 271 273 275 273 271 269 266 261 260 256 253 250 248 243 236 233 233 235 233 234 236 237 238 238 240 240 240
261 261 262 262 262 262 263 262 262 263 264 268 272 274 273 270 268 266 263 261 258 253 250 247 243 236 232 232 232 233 234 236 237 237 238 240 240 239
259 259 260 260 260 260 261 261 261 262 262 265 269 272 270 268 267 265 263 260 258 253 250 247 243 237 232 229 230 232 235 237 238 238 239 240 241 240
256 257 258 258 257 257 258 259 260 261 262 264 267 269 267 266 266 265 263 261 258 252 248 247 243 239 234 230 229 231 234 236 238 238 239 240 241 241
254 255 255 255 254 255 255 256 258 259 260 262 264 266 265 264 265 264 263 261 258 252 247 243 241 238 235 233 231 233 235 237 238 238 239 240 241 241
253 253 253 253 252 252 253 254 256 257 258 260 261 263 263 264 264 263 262 258 256 252 246 241 239 237 236 235 233 234 235 236 237 239 239 240 241 242
250 250 250 250 250 249 250 251 253 254 256 258 259 261 262 262 263 261 260 256 254 249 241 239 239 238 236 236 235 234 233 234 235 237 238 239 239 240
248 247 247 247 247 247 247 248 250 251 253 255 257 260 260 260 261 259 257 253 250 246 241 237 236 235 233 233 234 233 233 234 235 236 237 236 238 240
245 244 243 243 243 243 243 244 246 249 250 253 255 257 258 259 259 257 254 249 245 243 240 237 235 234 234 234 234 232 232 234 236 236 237 239 241 243
241 240 240 239 239 239 240 242 244 245 248 251 252 252 255 256 255 253 250 247 243 240 238 236 235 236 234 236 237 236 237 237 237 238 240 243 244 246
237 236 235 235 235 235 236 238 240 242 245 247 247 249 251 250 250 248 247 245 241 240 239 236 235 236 235 235 235 235 235 235 236 238 242 243 244 245
232 231 231 231 230 231 232 234 236 238 241 242 244 246 245 245 245 244 242 239 239 238 236 236 235 234 234 231 230 233 232 233 235 236 238 238 239 241
226 225 225 226 225 226 228 230 231 233 235 237 238 239 238 238 239 236 235 234 235 233 232 232 231 230 229 228 229 230 230 233 235 235 235 236 238 240
223 221 220 220 220 220 222 224 226 228 230 231 231 231 231 232 231 229 227 227 226 226 224 223 223 224 224 225 227 226 228 230 231 234 235 236 238 240
218 217 214 212 214 216 216 217 219 221 222 223 224 225 227 226 224 221 219 219 221 221 219 219 219 221 221 221 222 224 226 229 232 235 236 236 239 242
213 209 207 207 208 211 211 211 212 213 214 216 218 219 220 219 216 213 212 214 216 215 215 217 219 220 219 221 223 226 226 229 231 232 234 236 239 244
207 201 200 199 200 203 203 203 202 203 205 207 209 211 210 208 206 206 208 210 212 214 215 216 219 223 224 224 224 224 226 228 231 231 235 240 245 250
198 194 192 191 194 194 193 194 195 196 196 198 199 198 197 199 200 201 203 204 206 210 212 216 219 220 221 222 223 224 225 230 233 237 243 248 252 255
188 186 183 181 182 182 184 187 189 189 190 191 192 191 193 197 199 200 202 204 206 209 212 215 215 215 216 219 223 226 230 235 242 247 251 254 257 260
179 177 174 174 176 180 182 182 183 184 185 188 189 191 193 195 196 197 198 200 203 205 208 211 214 217 220 224 229 234 238 244 249 253 257 260 263 266
167 169 169 168 169 172 174 176 177 179 181 183 184 186 188 191 192 193 195 198 201 205 209 213 217 220 225 230 236 240 245 250 255 259 263 266 268 270
161 164 166 167 167 167 169 172 174 175 176 177 179 182 183 184 186 189 194 197 202 204 207 211 216 223 230 237 243 249 253 257 261 265 268 271 273 274
156 159 162 162 163 165 167 170 171 171 170 172 173 175 176 179 182 186 191 196 201 205 211 218 226 233 239 245 251 255 260 264 267 270 273 275 277 278
Height
5759 5760 5762 5764 5765 5766 5768 5769 5771 5771 5771 5770 5770 5770 5770 5771 5771 5772 5773 5773 5774 5776 5778 5780 5782 5785 5789 5793 5797 5801 5805 5808 5812 5815 5818 5821 5824 5827
5748 5750 5752 5754 5755 5757 5758 5760 5761 5763 5764 5763 5762 5762 5762 5763 5764 5764 5765 5766 5767 5768 5770 5772 5774 5777 5781 5785 5789 5793 5797 5800 5804 5807 5810 5814 5816 5819
5736 5738 5740 5742 5745 5747 5748 5750 5751 5753 5755 5755 5755 5755 5754 5755 5756 5757 5757 5758 5760 5761 5762 5765 5767 5770 5773 5777 5781 5785 5789 5792 5795 5799 5802 5805 5808 5812
5722 5725 5728 5731 5733 5736 5738 5740 5742 5743 5745 5747 5747 5747 5747 5747 5748 5749 5750 5751 5752 5753 5755 5757 5760 5762 5766 5769 5773 5777 5781 5784 5787 5791 5794 5797 5800 5803
5708 5712 5715 5718 5722 5725 5727 5730 5732 5733 5735 5737 5738 5738 5739 5740 5740 5741 5742 5743 5744 5745 5748 5750 5752 5755 5758 5762 5766 5769 5773 5776 5779 5783 5786 5789 5792 5795
5692 5697 5701 5705 5709 5713 5716 5719 5722 5724 5726 5728 5730 5730 5731 5732 5733 5733 5734 5735 5736 5738 5740 5743 5745 5748 5751 5755 5758 5762 5765 5768 5771 5774 5777 5780 5783 5786
5675 5681 5686 5691 5696 5700 5704 5708 5711 5714 5716 5718 5720 5722 5723 5724 5725 5726 5726 5727 5729 5731 5733 5736 5739 5741 5744 5748 5751 5754 5757 5760 5764 5767 5770 5773 5775 5778
5657 5664 5670 5677 5682 5687 5692 5696 5700 5704 5707 5709 5711 5713 5714 5715 5716 5718 5719 5720 5722 5725 5726 5729 5732 5735 5738 5741 5744 5747 5750 5753 5756 5759 5762 5765 5768 5770
5639 5646 5654 5661 5668 5674 5680 5685 5689 5693 5697 5700 5702 5704 5706 5707 5709 5710 5712 5713 5715 5717 5720 5722 5725 5728 5731 5734 5737 5740 5743 5746 5749 5751 5754 5757 5760 5762
5621 5629 5637 5646 5653 5661 5667 5673 5678 5683 5686 5690 5693 5696 5698 5699 5701 5703 5704 5706 5708 5711 5713 5716 5719 5722 5725 5728 5730 5733 5736 5739 5742 5745 5747 5750 5752 5754
5604 5613 5622 5631 5639 5647 5654 5661 5667 5672 5676 5681 5684 5687 5689 5691 5693 5695 5697 5699 5701 5704 5707 5709 5712 5715 5718 5721 5723 5726 5729 5732 5735 5738 5740 5742 5744 5746
5590 5598 5607 5616 5625 5633 5642 5649 5656 5662 5667 5671 5675 5678 5681 5683 5686 5688 5690 5693 5695 5698 5701 5703 5706 5709 5711 5714 5717 5719 5723 5725 5728 5731 5733 5735 5737 5740
5577 5585 5593 5602 5611 5621 5630 5638 5645 5652 5657 5662 5666 5670 5673 5676 5679 5681 5684 5687 5690 5693 5696 5698 5700 5703 5706 5708 5711 5714 5717 5719 5722 5724 5727 5729 5731 5734
5566 5574 5582 5591 5599 5609 5618 5627 5635 5642 5648 5653 5658 5662 5666 5669 5672 5675 5678 5681 5684 5687 5690 5693 5695 5698 5701 5704 5706 5709 5711 5714 5716 5719 5721 5724 5726 5728
5558 5565 5572 5580 5589 5599 5608 5617 5625 5633 5639 5645 5650 5654 5659 5663 5666 5669 5672 5675 5679 5682 5685 5688 5691 5694 5697 5699 5702 5704 5707 5709 5712 5714 5716 5718 5720 5722
5551 5557 5564 5572 5581 5590 5600 5609 5617 5625 5631 5637 5643 5648 5652 5656 5660 5664 5667 5671 5674 5678 5681 5684 5687 5690 5693 5695 5698 5700 5703 5705 5707 5709 5711 5713 5714 5716
5545 5551 5558 5566 5575 5584 5593 5602 5610 5618 5625 5631 5637 5642 5647 5651 5655 5659 5663 5667 5670 5674 5677 5680 5683 5686 5689 5692 5694 5696 5699 5701 5703 5705 5707 5708 5709 5711
5542 5548 5555 5563 5571 5580 5589 5597 5605 5612 5619 5626 5632 5637 5642 5647 5651 5655 5659 5663 5666 5670 5674 5677 5680 5682 5686 5688 5691 5693 5695 5697 5699 5700 5702 5703 5704 5705
5540 5546 5553 5561 5569 5577 5586 5594 5601 5608 5615 5622 5628 5634 5639 5643 5648 5652 5655 5659 5663 5667 5670 5673 5676 5679 5682 5685 5687 5689 5691 5693 5694 5696 5697 5698 5698 5698
5540 5546 5553 5560 5568 5576 5584 5591 5599 5606 5613 5619 5625 5631 5636 5640 5645 5649 5653 5657 5660 5664 5667 5670 5673 5676 5678 5681 5683 5685 5687 5688 5689 5690 5691 5691 5691 5691
5542 5548 5555 5561 5568 5575 5583 5591 5598 5605 5611 5618 5623 5629 5633 5638 5642 5647 5651 5655 5658 5661 5664 5667 5670 5673 5675 5677 5679 5680 5682 5683 5683 5684 5684 5684 5684 5683
5545 5551 5557 5563 5570 5577 5584 5591 5598 5604 5610 5616 5622 5627 5632 5636 5640 5645 5649 5652 5656 5659 5662 5664 5667 5669 5671 5673 5674 5675 5676 5677 5677 5677 5677 5676 5675 5674
5549 5554 5560 5566 5572 5579 5586 5593 5599 5605 5611 5616 5622 5627 5631 5636 5640 5644 5647 5651 5654 5657 5659 5662 5664 5665 5667 5668 5669 5670 5670 5670 5670 5669 5669 5668 5667 5665